Location: Bremen
(53.0796°N, 8.8241°E)
Time: 03:45:59
(UTC+02:00)

ISS - Pass Details

Date: 06 January 2018
Orbit: 401 x 409 km, 51.6° (Epoch: 20 August)

Event Time Altitude Azimuth Distance (km) Brightness Sun altitude
Exits shadow 06:49:00 30° 260° (W) 780 -2.9 -15.1°
Maximum altitude 06:50:28 66° 187° (S) 466 -3.6 -14.9°
Drops below altitude 10° 06:53:51 10° 105° (ESE) 1,516 0.5 -14.4°
Sets 06:55:58 0° 102° (ESE) 2,383 2.0 -14.1°
